FW7298 Weather Reports


time (UTC)temp
C
wind
direction
speed
KPH
gust
KPH
rain 1hr
cm
rain 24hr
cm
rain mn
cm
humidity
%
barometer
mb
20260507134525 12 31 0.0 0.0 0.00 0.94 0.94 80 1013.9
20260507134021 12 6 0.0 1.6 0.00 0.94 0.94 81 1013.8
20260507133517 12 13 0.0 0.0 0.00 0.94 0.94 81 1013.8
20260507133016 12 13 0.0 0.0 0.00 0.94 0.94 81 1013.8
20260507132511 12 7 0.0 1.6 0.00 0.94 0.94 81 1013.8
20260507132008 12 338 1.6 1.6 0.00 0.94 0.94 82 1013.9
20260507131505 12 283 4.8 4.8 0.00 0.94 0.94 84 1013.5
20260507131002 12 50 0.0 0.0 0.00 0.94 0.94 84 1013.6
20260507130459 12 51 0.0 0.0 0.00 0.94 0.94 83 1013.7
20260507125957 12 63 0.0 0.0 0.00 0.94 0.94 82 1013.7
20260507125455 12 111 0.0 0.0 0.00 0.94 0.94 83 1013.8
20260507124952 12 283 0.0 0.0 0.00 0.94 0.94 84 1013.4
20260507124448 12 14 0.0 0.0 0.00 0.94 0.94 86 1013.5
20260507123947 12 8 0.0 0.0 0.00 0.94 0.94 85 1013.5
20260507123444 12 7 0.0 0.0 0.00 0.94 0.94 85 1013.5
20260507122940 12 39 0.0 0.0 0.00 0.94 0.94 84 1013.5
20260507122436 12 9 0.0 0.0 0.00 0.94 0.94 86 1013.4
20260507121932 12 16 0.0 0.0 0.00 0.94 0.94 87 1013.3
20260507121427 11 20 0.0 0.0 0.00 0.94 0.94 87 1013.5
20260507120924 12 38 0.0 0.0 0.00 0.94 0.94 89 1013.2
20260507120420 12 348 0.0 0.0 0.00 0.94 0.94 89 1013.4
20260507115917 11 48 1.6 1.6 0.00 0.94 0.94 89 1013.6
20260507115413 11 354 1.6 1.6 0.00 0.94 0.94 90 1013.6
20260507114909 12 18 0.0 0.0 0.00 0.94 0.94 91 1013.5
20260507114406 11 18 0.0 0.0 0.00 0.94 0.94 92 1013.4
20260507113903 11 18 0.0 0.0 0.00 0.94 0.94 92 1013.2
20260507113400 11 36 0.0 0.0 0.00 0.94 0.94 92 1012.9
20260507112857 11 36 0.0 0.0 0.00 0.94 0.94 92 1013.2
20260507112355 11 36 0.0 0.0 0.00 0.94 0.94 92 1013.0
20260507111852 11 46 0.0 0.0 0.00 0.94 0.94 92 1012.9
20260507111349 11 43 0.0 0.0 0.00 0.94 0.94 93 1012.9
20260507110845 11 38 0.0 0.0 0.00 0.94 0.94 93 1013.2
20260507110341 11 27 0.0 0.0 0.00 0.94 0.94 93 1013.1
20260507105838 11 25 0.0 0.0 0.00 0.94 0.94 93 1013.0
20260507105335 11 26 0.0 0.0 0.00 0.94 0.94 93 1013.0
20260507104832 11 27 0.0 0.0 0.00 0.94 0.94 93 1013.0
20260507104328 11 19 0.0 0.0 0.00 0.94 0.94 93 1013.0
20260507103824 12 18 0.0 0.0 0.00 0.94 0.94 94 1012.5
20260507103321 12 26 0.0 0.0 0.00 0.94 0.94 93 1012.7
20260507102817 12 32 0.0 0.0 0.00 0.94 0.94 93 1012.7
20260507102314 12 39 0.0 0.0 0.00 0.94 0.94 93 1012.6
20260507101810 12 38 0.0 0.0 0.00 0.94 0.94 93 1012.4
20260507101305 12 37 0.0 0.0 0.00 0.94 0.94 93 1012.3
20260507100802 12 35 0.0 0.0 0.00 0.94 0.94 93 1012.7
20260507100301 12 32 0.0 0.0 0.00 0.94 0.94 93 1012.7
20260507095759 12 32 0.0 0.0 0.00 0.94 0.94 93 1012.7
20260507095254 12 34 0.0 0.0 0.00 0.94 0.94 93 1012.5
20260507094751 12 34 0.0 0.0 0.00 0.94 0.94 93 1012.6
20260507094248 12 25 0.0 0.0 0.00 0.94 0.94 93 1012.4
20260507093745 12 31 0.0 0.0 0.00 0.94 0.94 93 1012.3
20260507093243 12 32 0.0 0.0 0.00 0.94 0.94 93 1012.3
20260507092741 12 34 0.0 0.0 0.00 0.94 0.94 93 1012.2
20260507092237 12 19 0.0 0.0 0.00 0.94 0.94 93 1012.6
20260507091734 12 25 0.0 0.0 0.00 0.94 0.94 93 1012.2
20260507091230 12 23 0.0 0.0 0.00 0.94 0.94 93 1012.0
20260507090726 12 14 0.0 0.0 0.00 0.94 0.94 93 1012.3
20260507090222 12 14 0.0 0.0 0.00 0.94 0.94 93 1012.2
20260507085720 12 16 0.0 0.0 0.00 0.94 0.94 93 1012.1
20260507085217 12 16 0.0 0.0 0.00 0.94 0.94 93 1012.2
20260507084713 12 14 0.0 0.0 0.00 0.94 0.94 93 1012.4
20260507084210 12 11 0.0 0.0 0.00 0.94 0.94 93 1012.2
20260507083707 12 12 0.0 0.0 0.00 0.94 0.94 93 1012.0
20260507083204 12 8 0.0 0.0 0.00 0.94 0.94 93 1012.4
20260507082700 12 1 0.0 0.0 0.00 0.94 0.94 93 1012.2
20260507082156 12 31 0.0 0.0 0.00 0.94 0.94 93 1012.0
20260507081653 12 5 0.0 0.0 0.00 0.94 0.94 92 1012.3
20260507081149 12 8 0.0 0.0 0.00 0.94 0.94 93 1012.1
20260507080646 12 3 1.6 1.6 0.00 0.94 0.94 92 1012.0
20260507080143 12 15 0.0 0.0 0.00 0.94 0.94 92 1012.0
20260507075642 12 46 0.0 0.0 0.00 0.94 0.94 92 1011.6
20260507075139 12 347 0.0 1.6 0.00 0.94 0.94 92 1011.6
20260507074636 12 6 0.0 0.0 0.00 0.94 0.94 92 1011.7
20260507074134 12 306 0.0 1.6 0.00 0.94 0.94 92 1011.8
20260507073630 12 343 1.6 3.2 0.00 0.94 0.94 92 1011.6
20260507073126 12 358 0.0 0.0 0.00 0.94 0.94 92 1011.6
20260507072624 12 306 1.6 1.6 0.00 0.94 0.94 92 1011.2
20260507072121 12 355 0.0 0.0 0.00 0.94 0.94 93 1011.3
20260507071619 12 352 0.0 1.6 0.00 0.94 0.94 93 1011.4
20260507071115 12 335 1.6 1.6 0.00 0.94 0.94 93 1011.6
20260507070612 12 353 1.6 3.2 0.00 0.94 0.94 93 1011.3
20260507070109 12 310 4.8 4.8 0.00 0.94 0.94 94 1011.2
20260507065605 12 312 1.6 3.2 0.00 0.94 0.94 94 1011.2
20260507065102 12 348 0.0 1.6 0.00 0.94 0.94 94 1011.4
20260507064600 12 9 1.6 1.6 0.00 0.94 0.94 95 1011.4
20260507064059 12 337 3.2 3.2 0.00 0.94 0.94 95 1011.2
20260507063555 12 341 3.2 3.2 0.00 0.94 0.94 95 1011.4
20260507063053 12 13 0.0 0.0 0.00 0.94 0.94 95 1011.2
20260507062549 13 15 0.0 0.0 0.18 0.94 0.94 95 1011.5
20260507062047 13 353 1.6 3.2 0.18 0.94 0.94 95 1011.6
20260507061544 13 311 0.0 1.6 0.00 0.91 0.91 95 1011.2
20260507061042 13 56 3.2 3.2 0.00 0.91 0.91 95 1011.3
20260507060540 13 359 1.6 3.2 0.00 0.91 0.91 95 1011.1
20260507060037 13 295 3.2 3.2 0.00 0.91 0.91 95 1011.2
20260507055531 13 346 1.6 3.2 0.00 0.91 0.91 95 1010.9
20260507055028 13 21 0.0 0.0 0.00 0.91 0.91 95 1010.8
20260507054524 13 340 3.2 3.2 0.13 0.91 0.91 95 1011.1
20260507054021 13 198 3.2 3.2 0.13 0.91 0.91 95 1011.1
20260507053519 13 343 1.6 1.6 0.00 0.89 0.89 95 1011.3
20260507053018 13 41 0.0 0.0 0.18 0.89 0.89 94 1011.4
20260507052515 13 28 0.0 1.6 0.30 0.89 0.89 94 1011.3
20260507052011 13 3 0.0 1.6 0.13 0.86 0.86 94 1010.8
20260507051509 13 322 1.6 1.6 0.13 0.86 0.86 94 1011.4
20260507051006 13 182 1.6 1.6 0.18 0.84 0.84 94 1011.3
20260507050502 14 29 0.0 0.0 0.18 0.84 0.84 94 1011.3
20260507045959 14 330 3.2 3.2 0.00 0.81 0.81 93 1011.5
20260507045455 14 7 1.6 1.6 0.13 0.81 0.81 93 1011.1
20260507044953 13 65 0.0 0.0 0.30 0.81 0.81 93 1011.4
20260507044449 14 341 0.0 0.0 0.43 0.81 0.81 93 1011.5
20260507043946 14 292 1.6 3.2 0.89 0.76 0.76 92 1011.2
20260507043442 14 14 0.0 0.0 1.80 0.71 0.71 92 1011.6
20260507042938 14 352 0.0 0.0 2.87 0.64 0.64 91 1011.8
20260507042436 15 340 1.6 1.6 1.98 0.43 0.43 90 1011.7
20260507041931 15 358 1.6 1.6 0.61 0.15 0.15 87 1011.5
20260507041428 15 278 1.6 1.6 0.48 0.10 0.10 85 1011.3
20260507040925 16 332 4.8 8.0 0.30 0.05 0.05 82 1011.2
20260507040421 16 16 3.2 3.2 0.00 0.00 0.00 79 1011.1
20260507035917 17 291 4.8 8.0 0.00 0.61 0.61 78 1011.2
20260507035414 17 62 1.6 1.6 0.00 0.61 0.61 78 1011.1
20260507034910 17 290 4.8 8.0 0.00 0.61 0.61 78 1010.8
20260507034407 17 16 0.0 1.6 0.00 0.61 0.61 79 1010.7
20260507033906 17 295 3.2 3.2 0.00 0.61 0.61 80 1010.8
20260507033403 17 356 3.2 3.2 0.00 0.61 0.61 81 1011.0
20260507032900 18 305 4.8 4.8 0.00 0.61 0.61 82 1010.9
20260507032356 18 294 1.6 3.2 0.00 0.61 0.61 83 1010.7
20260507031853 18 357 0.0 0.0 0.00 0.61 0.61 84 1010.7
20260507031349 18 345 1.6 1.6 0.00 0.61 0.61 83 1010.8
20260507030846 18 337 1.6 1.6 0.00 0.61 0.61 84 1010.5
20260507030343 18 343 1.6 1.6 0.00 0.61 0.61 84 1010.0
20260507025840 18 295 1.6 1.6 0.00 0.61 0.61 83 1010.0
20260507025337 18 342 0.0 0.0 0.00 0.61 0.61 83 1010.2
20260507024835 18 279 3.2 3.2 0.00 0.61 0.61 83 1010.1
20260507024332 18 317 3.2 3.2 0.00 0.61 0.61 83 1010.7
20260507023828 18 318 1.6 3.2 0.00 0.61 0.61 83 1010.5
20260507023325 18 19 1.6 1.6 0.00 0.61 0.61 83 1010.1
20260507022822 18 331 1.6 3.2 0.00 0.61 0.61 85 1010.0
20260507022319 18 14 1.6 1.6 0.00 0.61 0.61 87 1010.1
20260507021815 18 5 1.6 1.6 0.00 0.61 0.61 88 1009.7
20260507021311 18 29 0.0 1.6 0.00 0.61 0.61 89 1010.0
20260507020809 18 284 3.2 3.2 0.00 0.61 0.61 90 1009.7
20260507020305 18 44 0.0 0.0 0.00 0.61 0.61 90 1009.6
20260507015802 18 51 0.0 0.0 0.00 0.61 0.61 90 1009.9
20260507015300 19 357 0.0 0.0 0.00 0.61 0.61 89 1010.2
20260507014756 19 342 0.0 0.0 0.00 0.61 0.61 88 1010.0
20260507014253 19 55 0.0 0.0 0.00 0.61 0.61 88 1010.0
20260507013749 19 55 0.0 0.0 0.00 0.61 0.61 87 1009.8
20260507013247 19 56 0.0 0.0 0.00 0.61 0.61 87 1009.9
20260507012744 19 55 0.0 0.0 0.00 0.61 0.61 86 1010.2
20260507012244 19 66 0.0 0.0 0.00 0.61 0.61 86 1009.7
20260507011743 19 66 0.0 0.0 0.00 0.61 0.61 86 1009.8
20260507011239 20 64 0.0 0.0 0.00 0.61 0.61 85 1010.0
20260507010738 20 65 0.0 0.0 0.00 0.61 0.61 85 1010.2
20260507010235 20 65 0.0 0.0 0.00 0.61 0.61 85 1010.4
20260507005733 20 60 0.0 0.0 0.00 0.61 0.61 85 1010.3
20260507005229 19 60 0.0 0.0 0.00 0.61 0.61 85 1010.1
20260507004725 20 59 0.0 0.0 0.00 0.61 0.61 85 1009.8
20260507004223 20 58 0.0 0.0 0.00 0.61 0.61 85 1010.1
20260507003719 20 58 0.0 0.0 0.00 0.61 0.61 84 1009.7
20260507003214 20 59 0.0 0.0 0.00 0.61 0.61 84 1009.8
20260507002711 20 56 0.0 0.0 0.00 0.61 0.61 84 1009.8
20260507002207 20 3 0.0 0.0 0.00 0.61 0.61 84 1009.9
20260507001704 20 349 0.0 0.0 0.00 0.61 0.61 83 1009.8
20260507001201 20 22 0.0 0.0 0.00 0.61 0.61 83 1009.7
20260507000657 20 26 0.0 0.0 0.00 0.61 0.61 83 1009.7
20260507000153 20 43 0.0 0.0 0.00 0.61 0.61 82 1009.4
20260506235650 20 68 0.0 0.0 0.00 0.61 0.61 82 1009.4
20260506235145 20 102 0.0 0.0 0.00 0.61 0.61 82 1009.2
20260506234643 20 22 0.0 0.0 0.00 0.61 0.61 82 1009.3
20260506234140 20 51 0.0 0.0 0.00 0.61 0.61 83 1009.2
20260506233637 20 34 0.0 0.0 0.00 0.61 0.61 82 1009.0
20260506233134 20 64 0.0 0.0 0.00 0.61 0.61 82 1008.9
20260506232630 20 65 0.0 0.0 0.00 0.61 0.61 82 1009.0
20260506232125 20 341 0.0 1.6 0.00 0.61 0.61 82 1008.8
20260506231623 20 50 0.0 0.0 0.00 0.61 0.61 82 1009.1
20260506231121 20 28 0.0 0.0 0.00 0.61 0.61 82 1008.7
20260506230617 20 24 0.0 0.0 0.00 0.61 0.61 81 1008.9
20260506230115 20 15 0.0 1.6 0.00 0.61 0.61 81 1008.8
20260506225611 20 310 0.0 0.0 0.00 0.61 0.61 82 1009.0
20260506225108 20 51 3.2 3.2 0.00 0.61 0.61 81 1008.9
20260506224604 20 3 0.0 0.0 0.00 0.61 0.61 80 1008.7
20260506224101 20 172 0.0 0.0 0.00 0.61 0.61 81 1008.7
20260506223557 21 79 0.0 1.6 0.00 0.61 0.61 80 1008.6
20260506223053 21 356 1.6 1.6 0.00 0.61 0.61 79 1008.7
20260506222550 21 22 0.0 0.0 0.00 0.61 0.61 79 1009.1
20260506222047 20 54 0.0 0.0 0.00 0.61 0.61 79 1008.8
20260506221545 20 24 1.6 1.6 0.00 0.61 0.61 79 1009.2
20260506221042 20 240 0.0 1.6 0.00 0.61 0.61 79 1009.0
20260506220538 21 138 0.0 0.0 0.00 0.61 0.61 79 1008.9
20260506220033 21 3 1.6 1.6 0.00 0.61 0.61 79 1008.7
20260506215531 20 82 0.0 0.0 0.00 0.61 0.61 79 1009.0
20260506215026 20 42 0.0 0.0 0.00 0.61 0.61 80 1008.8
20260506214524 20 64 0.0 0.0 0.00 0.61 0.61 79 1008.9
20260506214021 20 177 0.0 0.0 0.00 0.61 0.61 79 1009.1
20260506213519 20 301 0.0 0.0 0.00 0.61 0.61 79 1008.9
20260506213016 20 223 1.6 1.6 0.00 0.61 0.61 79 1008.8
20260506212512 20 39 3.2 8.0 0.00 0.61 0.61 79 1008.9
20260506212007 20 185 0.0 0.0 0.00 0.61 0.61 80 1009.0
20260506211503 20 56 0.0 0.0 0.00 0.61 0.61 80 1009.0
20260506211001 20 355 0.0 1.6 0.00 0.61 0.61 80 1009.0
20260506210456 20 216 1.6 1.6 0.00 0.61 0.61 80 1009.0
20260506205953 20 207 0.0 1.6 0.00 0.61 0.61 81 1008.9
20260506205449 20 335 0.0 1.6 0.00 0.61 0.61 80 1008.8
20260506204946 20 351 3.2 3.2 0.00 0.61 0.61 79 1008.9
20260506204444 20 64 0.0 0.0 0.00 0.61 0.61 80 1008.7
20260506203941 20 93 0.0 0.0 0.00 0.61 0.61 80 1008.5
20260506203438 20 343 1.6 1.6 0.00 0.61 0.61 80 1008.8
20260506202935 20 18 1.6 3.2 0.00 0.61 0.61 80 1008.6
20260506202432 20 339 3.2 3.2 0.00 0.61 0.61 79 1008.7
20260506201929 20 187 0.0 1.6 0.00 0.61 0.61 80 1008.6
20260506201426 20 232 3.2 3.2 0.00 0.61 0.61 80 1008.8
20260506200923 20 108 1.6 1.6 0.00 0.61 0.61 82 1008.7
20260506200419 20 311 1.6 3.2 0.00 0.61 0.61 81 1008.5
20260506195916 20 321 4.8 4.8 0.00 0.61 0.61 81 1008.6
20260506195413 20 53 3.2 8.0 0.00 0.61 0.61 81 1008.7
20260506194909 20 18 0.0 3.2 0.00 0.61 0.61 82 1008.7
20260506194406 20 13 0.0 1.6 0.00 0.61 0.61 82 1008.9
20260506193904 19 52 0.0 0.0 0.00 0.61 0.61 83 1008.8
20260506193400 19 231 3.2 4.8 0.00 0.61 0.61 82 1009.0
20260506192856 19 15 1.6 3.2 0.00 0.61 0.61 83 1009.0
20260506192354 19 170 1.6 1.6 0.00 0.61 0.61 82 1009.1
20260506191850 19 115 0.0 1.6 0.00 0.61 0.61 84 1008.8
20260506191347 19 338 0.0 1.6 0.00 0.61 0.61 82 1009.3
20260506190844 19 87 3.2 4.8 0.00 0.61 0.61 83 1009.4
20260506190340 19 51 3.2 4.8 0.00 0.61 0.61 83 1009.4
20260506185837 18 44 0.0 0.0 0.00 0.61 0.61 83 1009.5
20260506185334 19 35 3.2 3.2 0.00 0.61 0.61 84 1009.4
20260506184831 18 328 3.2 4.8 0.00 0.61 0.61 83 1009.6
20260506184328 18 135 0.0 0.0 0.00 0.61 0.61 83 1009.7
20260506183826 18 63 0.0 1.6 0.00 0.61 0.61 84 1009.5
20260506183320 18 297 0.0 1.6 0.00 0.61 0.61 84 1009.8
20260506182818 18 354 1.6 3.2 0.00 0.61 0.61 85 1009.6
20260506182315 18 39 4.8 4.8 0.00 0.61 0.61 84 1009.3
20260506181813 18 136 4.8 4.8 0.00 0.61 0.61 84 1009.6
20260506181310 18 266 1.6 3.2 0.00 0.61 0.61 84 1010.0
20260506180808 18 168 1.6 1.6 0.00 0.61 0.61 84 1009.8
20260506180303 18 216 3.2 3.2 0.00 0.61 0.61 84 1009.8
20260506175800 18 26 0.0 1.6 0.00 0.61 0.61 85 1009.7
20260506175257 18 10 0.0 0.0 0.00 0.61 0.61 84 1009.9
20260506174754 18 44 3.2 4.8 0.00 0.61 0.61 84 1009.7
20260506174251 18 143 1.6 1.6 0.00 0.61 0.61 85 1009.6
20260506173749 18 291 0.0 1.6 0.00 0.61 0.61 85 1009.7
20260506173246 17 132 0.0 1.6 0.00 0.61 0.61 86 1009.9
20260506172742 17 220 1.6 1.6 0.00 0.61 0.61 87 1010.2
20260506172239 17 107 0.0 1.6 0.00 0.61 0.61 88 1010.1
20260506171737 17 255 1.6 1.6 0.00 0.61 0.61 90 1010.0
20260506171233 17 39 0.0 0.0 0.00 0.61 0.61 91 1009.9
20260506170731 17 278 1.6 1.6 0.00 0.61 0.61 91 1010.2
20260506170222 16 201 3.2 4.8 0.00 0.61 0.61 92 1010.2
20260506165720 16 167 3.2 4.8 0.00 0.61 0.61 93 1010.4
20260506165217 16 175 1.6 3.2 0.00 0.61 0.61 93 1010.3
20260506164714 16 4 4.8 4.8 0.00 0.61 0.61 94 1010.3
20260506164211 16 61 4.8 8.0 0.00 0.61 0.61 94 1010.3
20260506163707 16 16 0.0 1.6 0.00 0.61 0.61 94 1010.4
20260506163202 16 4 3.2 3.2 0.00 0.61 0.61 95 1010.4
20260506162659 16 26 0.0 0.0 0.00 0.61 0.61 95 1010.2
20260506162156 16 66 1.6 1.6 0.00 0.61 0.61 95 1010.5
20260506161653 16 114 1.6 1.6 0.00 0.61 0.61 95 1010.6
20260506161150 16 19 3.2 4.8 0.00 0.61 0.61 95 1010.6
20260506160648 16 51 4.8 8.0 0.00 0.61 0.61 95 1010.8
20260506160145 16 161 0.0 0.0 0.00 0.61 0.61 95 1010.5
20260506155643 16 87 0.0 0.0 0.00 0.61 0.61 95 1010.5
20260506155140 16 26 0.0 0.0 0.00 0.61 0.61 95 1010.8
20260506153242 16 92 0.0 0.0 0.00 0.61 0.61 95 1010.5
20260506152739 16 65 1.6 1.6 0.00 0.61 0.61 95 1010.8
20260506152236 16 60 0.0 0.0 0.00 0.61 0.61 95 1011.0
20260506151735 16 42 0.0 0.0 0.00 0.61 0.61 95 1010.6
20260506151231 16 80 0.0 1.6 0.00 0.61 0.61 95 1010.7
20260506150728 16 138 0.0 1.6 0.00 0.61 0.61 95 1010.8
20260506150225 15 29 1.6 3.2 0.00 0.61 0.61 95 1011.2
20260506145722 15 82 0.0 0.0 0.30 0.61 0.61 95 1011.1
20260506145218 15 68 0.0 0.0 0.48 0.61 0.61 94 1011.1
20260506144716 16 311 0.0 0.0 0.30 0.58 0.58 94 1011.3
20260506144213 16 134 0.0 0.0 0.43 0.53 0.53 94 1011.4
20260506143710 16 204 0.0 1.6 0.48 0.51 0.51 94 1011.4
20260506143208 16 161 0.0 1.6 0.18 0.46 0.46 94 1011.4
20260506142706 16 142 1.6 1.6 0.00 0.43 0.43 94 1011.3
20260506142204 16 43 0.0 0.0 0.13 0.43 0.43 94 1011.1
20260506141701 16 34 0.0 0.0 0.13 0.43 0.43 94 1011.1
20260506141159 16 41 0.0 0.0 0.00 0.41 0.41 94 1011.2
20260506140656 16 28 0.0 1.6 0.18 0.41 0.41 94 1011.1
20260506140153 16 48 0.0 0.0 0.48 0.41 0.41 93 1011.2
20260506135650 15 65 0.0 0.0 0.48 0.38 0.38 93 1011.3
20260506135147 15 49 0.0 0.0 0.30 0.33 0.33 93 1011.1